Wind_Speed
7 7 9 9 9 6 6 3 1 1 1 6 4 5 5 3 0 4 7 8 9 11 13 16 19 21 24 24 27 28 30 30 31 31 33 33 33 31 27 24 29 31 29 32
4 8 7 6 5 5 4 3 3 3 5 5 3 12 1 2 1 1 4 6 8 9 13 16 18 20 22 24 26 27 28 28 28 27 27 27 29 22 28 24 29 27 33 31
2 11 4 4 4 5 4 3 2 3 4 3 6 7 4 2 3 5 0 3 5 8 11 15 17 19 20 22 24 26 27 26 25 27 26 28 25 24 24 30 28 30 34 31
8 5 4 4 3 3 4 3 3 5 4 3 2 3 6 3 5 6 3 4 6 9 11 15 18 20 20 21 21 23 25 25 24 26 26 26 26 30 30 30 29 32 29 34
5 9 7 3 0 2 2 3 6 5 5 3 4 4 2 2 4 5 2 5 7 8 11 15 16 18 17 19 20 21 23 24 24 25 24 24 25 26 30 30 33 29 29 33
7 3 2 2 2 2 4 1 3 2 2 3 5 2 4 4 3 4 2 4 7 10 11 13 14 17 18 19 20 22 23 24 24 25 25 24 25 28 31 31 32 32 32 38
5 4 4 2 5 3 2 3 3 3 4 2 5 5 7 5 3 2 3 6 8 9 10 13 16 17 18 21 22 22 23 24 25 26 25 25 25 26 26 29 30 34 32 34
8 5 8 4 2 2 1 2 3 5 3 3 2 7 2 2 2 5 7 8 10 9 9 12 15 16 17 19 20 21 23 24 24 25 26 25 25 24 25 27 30 31 30 32
6 4 3 3 2 2 5 3 1 0 0 3 3 5 4 3 6 8 8 9 10 9 9 12 15 15 15 17 19 20 21 23 23 24 24 25 26 26 27 29 29 29 33 36
6 4 6 5 1 6 4 8 3 2 3 6 5 5 9 6 7 6 7 7 9 8 9 12 14 15 14 15 17 18 19 20 22 24 23 24 26 25 26 27 30 31 34 36
5 2 6 5 8 9 5 4 1 1 2 4 5 3 3 8 8 7 7 8 8 9 9 12 14 14 13 14 15 18 21 23 25 26 26 27 28 28 27 26 28 30 34 35
3 1 5 2 2 2 2 4 7 4 6 2 3 7 5 6 7 5 8 9 8 8 9 12 13 13 12 13 16 18 21 23 25 29 30 29 30 29 29 31 30 29 33 36
8 4 3 3 2 3 6 6 3 4 1 9 4 5 3 4 7 8 10 9 8 8 9 11 11 11 11 12 15 18 20 22 26 29 32 33 32 32 34 35 35 32 33 36
6 3 5 6 3 4 6 12 14 9 5 7 13 10 7 10 11 8 8 9 8 8 9 9 10 11 11 11 14 17 20 21 24 29 31 32 33 34 34 35 38 37 35 34
4 6 4 3 1 3 5 8 18 19 16 12 11 12 12 10 9 6 4 5 8 10 8 8 8 10 10 11 13 16 18 21 24 28 31 32 34 33 35 35 38 39 35 34
1 3 2 3 2 6 9 14 16 20 19 18 16 21 10 11 3 7 10 9 10 9 8 7 9 10 11 11 13 15 19 21 24 26 30 31 33 35 36 36 37 39 38 37
7 7 5 3 1 2 7 20 23 14 14 18 13 17 6 5 9 10 11 11 11 9 7 7 9 10 10 12 14 18 21 22 23 25 28 30 32 34 35 36 36 39 37 37
6 6 2 1 2 7 3 1 2 19 11 20 11 10 8 7 4 5 8 9 10 8 8 8 9 10 12 14 17 19 19 21 22 24 26 28 30 32 34 35 34 38 36 33
3 4 3 3 5 9 7 6 7 10 10 22 23 21 9 3 3 10 12 13 10 6 7 10 12 15 17 18 17 19 20 19 21 21 23 27 28 30 32 33 33 35 35 34
3 2 3 3 5 7 4 1 3 2 8 6 17 19 12 9 8 9 4 4 7 8 11 14 15 17 19 18 15 17 19 20 20 19 23 25 26 28 28 26 31 30 32 30
4 3 11 9 6 8 0 6 3 5 5 10 8 8 8 9 4 4 4 2 2 7 12 14 15 18 20 18 17 19 18 20 19 20 21 23 24 26 22 24 26 24 28 31
10 10 6 5 7 10 5 6 5 3 4 6 8 4 3 4 2 1 2 4 5 8 10 11 14 17 17 16 16 19 20 21 18 18 20 21 23 23 20 24 24 24 22 25
4 5 4 10 4 2 3 3 2 2 5 5 5 6 4 4 3 5 4 6 8 9 10 11 12 15 15 13 14 19 22 19 18 19 19 20 22 21 20 20 19 19 20 21
7 2 3 2 3 3 6 2 6 7 7 9 7 7 5 6 7 7 6 8 10 10 12 12 13 14 16 14 14 16 20 19 19 20 19 18 19 17 17 17 17 16 18 22
2 4 3 1 3 2 4 7 6 8 8 8 8 7 7 7 7 7 7 10 11 13 13 12 16 17 18 18 18 18 17 18 20 19 19 16 13 14 17 15 15 16 14 19
2 1 2 1 2 2 1 6 7 7 8 8 9 8 8 9 8 10 11 12 14 15 14 17 17 19 20 21 21 20 18 18 21 17 15 12 11 12 13 16 19 12 14 16
Wind_Direction
27 90 85 68 57 76 92 95 217 205 16 323 286 267 174 162 82 23 19 12 10 6 354 0 0 358 357 357 356 356 353 353 354 351 348 344 337 335 334 334 332 334 330 325
87 98 92 81 75 97 109 134 223 265 197 283 254 261 182 192 154 56 1 358 355 351 353 355 356 357 358 353 353 353 352 350 351 348 343 337 331 325 328 328 331 330 331 331
82 131 126 103 112 154 172 213 210 278 306 233 276 249 221 147 214 214 247 347 351 351 345 348 350 352 352 352 350 348 347 347 347 346 342 340 338 332 333 333 332 330 331 332
90 142 160 126 115 259 201 186 279 269 271 293 316 291 215 180 229 225 255 349 349 346 340 345 347 348 348 347 345 343 344 345 344 345 344 343 338 331 330 327 325 326 328 329
120 156 164 188 197 209 77 284 277 258 242 285 177 244 170 178 240 223 241 332 337 338 341 338 340 341 340 343 343 341 340 343 343 343 343 339 333 328 325 326 325 328 326 332
126 110 175 136 184 243 332 228 137 142 190 241 156 258 232 189 153 159 213 324 331 334 329 327 331 334 338 342 343 342 340 340 342 341 339 336 332 330 328 328 328 328 327 328
158 166 142 172 177 212 273 203 230 218 213 321 145 237 282 143 158 199 275 307 318 313 322 325 330 333 335 339 340 339 338 337 339 339 337 334 331 329 325 325 324 323 325 322
182 211 189 141 235 199 177 253 288 284 275 342 185 237 242 119 198 237 255 276 291 300 317 320 323 323 327 331 334 336 336 333 337 337 334 332 330 327 325 321 320 316 317 314
167 176 109 69 146 237 150 203 31 89 69 274 211 262 190 209 238 236 254 271 293 302 314 317 316 316 318 325 328 332 332 331 333 334 331 331 329 328 323 321 321 315 316 315
172 136 194 157 204 60 252 136 163 184 251 260 203 259 244 196 210 216 247 289 303 296 305 312 311 310 307 318 323 327 330 328 329 331 332 329 327 326 325 323 321 319 317 322
161 246 146 162 205 187 156 183 101 10 266 256 293 223 168 163 174 197 261 287 288 291 296 298 300 301 299 312 322 326 331 333 335 336 334 332 332 330 328 325 322 320 318 321
160 122 183 184 93 338 294 214 193 220 188 214 318 269 160 163 177 209 270 282 286 279 283 286 289 295 297 310 322 326 332 334 337 339 337 335 335 334 331 332 330 324 320 322
174 187 165 197 203 205 226 189 153 95 48 204 206 251 164 217 236 235 262 273 274 280 282 284 287 287 290 306 318 325 332 334 337 341 341 340 339 337 338 337 337 332 325 326
160 181 239 266 49 119 199 196 192 190 201 190 226 266 202 219 232 243 247 247 259 266 275 280 280 279 286 301 315 322 328 334 336 340 342 340 338 339 338 341 342 339 335 323
199 225 217 250 203 230 235 207 195 208 216 214 260 223 251 225 216 228 252 239 255 263 260 264 275 284 291 300 310 318 325 331 335 338 341 341 340 341 343 343 343 343 335 328
176 200 162 254 226 235 256 242 220 221 231 246 260 275 246 243 205 241 230 235 249 257 263 269 274 281 290 298 307 314 320 327 331 334 338 341 343 345 345 344 345 345 337 337
167 156 161 233 34 267 256 238 211 209 218 221 217 236 162 199 214 220 218 223 238 250 262 267 271 278 287 296 305 308 316 321 325 328 335 340 344 344 345 345 345 343 339 337
149 145 176 257 210 246 316 42 250 219 232 217 247 238 210 227 211 230 215 215 232 240 246 253 261 269 285 294 301 304 310 315 319 324 329 337 341 343 345 344 344 342 339 332
354 143 159 230 224 319 275 196 181 183 258 216 224 240 214 161 307 263 217 219 230 222 235 253 267 278 285 292 302 302 306 311 314 319 324 331 336 340 343 342 338 342 338 333
79 46 247 158 247 262 34 150 195 217 268 21 222 238 203 153 238 247 134 171 197 238 260 270 279 280 282 294 295 294 299 305 306 312 318 326 330 334 337 336 335 336 338 329
165 189 219 217 257 283 117 140 142 188 317 340 321 260 155 203 256 91 130 138 240 273 283 287 284 280 286 292 287 284 291 291 306 307 312 321 326 329 331 329 336 334 335 338
176 165 192 190 223 264 137 118 213 10 352 352 3 1 257 260 348 332 280 291 298 295 301 298 291 290 296 294 288 284 284 301 298 302 307 316 323 327 324 331 336 337 337 335
216 220 189 203 214 39 217 26 49 265 316 342 341 5 337 319 337 343 329 329 320 315 311 307 298 301 303 301 291 286 293 296 294 294 300 308 317 325 323 328 332 337 337 340
206 157 243 235 95 40 30 54 22 337 300 307 305 321 342 336 343 343 345 340 330 325 320 316 310 305 305 308 299 287 295 295 288 286 292 302 310 317 321 327 329 333 335 334
14 158 176 218 101 169 83 41 4 8 21 19 18 15 12 359 350 344 333 331 327 322 319 318 313 308 306 309 304 300 294 291 285 281 284 292 299 307 316 319 320 323 324 325
352 32 237 24 31 315 353 10 2 3 4 2 359 355 1 354 339 335 327 324 320 314 320 315 311 308 307 306 303 301 300 293 289 272 273 277 289 299 309 318 322 325 326 334
Height
846 834 844 856 857 862 860 858 857 862 870 870 864 873 893 914 915 915 916 915 914 914 913 910 906 901 897 892 887 882 876 871 865 858 851 843 837 831 827 822 816 809 804 799
843 855 868 867 866 864 865 869 866 867 872 874 870 873 895 909 916 919 919 917 918 916 913 910 907 903 898 893 889 883 879 873 868 863 858 852 844 834 829 822 816 811 804 799
841 864 874 870 870 870 871 868 870 873 873 874 874 860 885 909 912 915 915 917 916 915 912 909 906 903 898 894 889 884 880 875 870 864 858 851 844 837 829 822 815 810 803 798
865 875 874 873 875 877 869 875 879 880 878 851 873 826 859 895 897 904 907 910 912 912 910 907 904 901 898 895 891 886 880 875 870 865 859 853 847 838 831 823 816 809 803 796
875 875 877 876 877 881 873 881 880 877 872 875 868 864 844 894 880 892 903 908 909 909 907 906 904 901 898 895 891 886 881 876 871 865 860 854 847 841 830 823 814 808 801 795
873 879 878 877 881 881 882 879 879 877 875 869 859 859 831 853 874 893 902 904 907 907 906 905 903 900 897 894 889 885 880 875 870 864 859 854 846 839 830 822 813 805 797 789
874 876 881 882 879 880 879 877 843 846 853 830 874 875 844 881 897 899 902 904 905 906 904 902 900 898 895 891 888 884 879 873 868 862 857 852 845 838 831 823 814 805 795 787
856 862 876 880 877 871 875 876 842 833 824 830 900 866 841 899 905 907 908 907 905 903 902 901 899 897 894 890 887 882 877 872 866 861 855 849 843 837 830 822 814 805 797 790
857 867 882 883 884 882 876 869 892 886 892 879 853 869 891 901 900 902 901 901 899 900 900 899 898 895 892 889 885 880 876 870 865 860 854 847 841 834 827 819 811 804 793 785
867 872 881 886 888 889 881 889 883 880 876 858 854 878 833 879 884 893 895 895 898 898 897 896 895 892 889 886 881 878 874 869 863 858 852 845 838 831 824 816 808 800 790 781
871 865 884 887 882 870 889 886 898 887 888 858 843 828 857 863 878 885 888 892 896 896 895 894 892 889 886 883 878 875 871 865 860 855 848 841 834 827 820 814 806 797 788 779
874 870 864 872 899 901 895 881 879 858 884 899 901 856 870 874 881 887 887 889 891 892 892 891 888 885 882 879 874 872 867 862 857 851 845 839 831 824 817 809 802 794 784 776
871 869 862 875 896 897 891 894 904 914 902 889 873 830 883 891 890 888 889 886 887 888 888 886 883 881 878 874 871 868 863 859 854 848 842 835 828 821 813 804 797 790 781 771
869 878 854 813 848 867 884 885 892 880 880 863 858 836 870 876 878 877 881 883 884 885 883 880 879 876 873 870 867 864 860 856 851 845 839 832 826 818 810 801 793 785 777 768
873 869 875 877 889 886 875 874 885 881 858 854 820 859 842 850 861 868 874 878 879 876 875 874 873 872 870 867 864 861 857 853 848 842 836 830 823 815 807 799 790 782 774 765
893 868 890 879 897 895 888 878 874 875 863 872 859 862 846 854 871 873 867 868 868 867 867 868 869 868 866 864 861 858 854 850 845 839 833 827 820 812 804 796 788 780 770 759
884 888 886 854 904 904 882 858 855 851 855 853 869 830 853 856 858 854 856 860 859 859 862 863 864 864 862 860 858 855 851 847 843 837 832 826 819 811 803 794 784 777 769 758
885 879 886 867 904 850 818 861 852 841 838 851 844 845 845 841 846 850 853 852 854 857 858 859 860 859 858 856 854 851 847 844 840 835 830 824 818 811 803 795 786 776 770 764
890 878 890 865 860 827 805 859 854 850 820 831 839 828 842 855 858 842 845 848 850 853 854 855 855 855 853 852 850 847 843 840 837 833 828 823 817 810 803 795 787 777 769 762
890 888 866 899 857 816 812 848 858 854 819 829 829 823 830 853 836 818 842 846 848 850 851 852 851 850 848 847 845 842 839 837 834 830 826 821 815 809 803 797 789 780 772 764
881 883 867 863 853 832 834 851 865 827 811 846 842 834 847 836 829 841 844 846 848 849 849 849 847 845 844 842 840 837 834 831 829 827 823 818 813 806 801 796 789 782 772 762
851 859 866 863 864 842 852 861 837 851 851 854 846 846 845 843 845 846 846 846 847 847 846 846 844 841 839 837 835 832 830 827 824 821 819 816 811 805 800 793 786 779 774 765
840 829 833 837 827 854 856 856 863 863 857 852 851 851 850 847 845 846 846 846 846 845 844 843 841 838 835 834 831 827 824 823 821 818 814 812 809 803 798 792 787 781 775 769
843 857 838 837 852 858 860 859 861 860 857 854 852 851 850 848 847 846 846 846 845 844 842 840 838 835 832 830 828 825 821 819 816 814 811 808 806 802 797 792 786 781 777 771
851 855 842 844 857 861 861 863 863 859 857 854 853 851 850 849 848 848 847 846 845 843 841 838 836 832 829 827 824 821 818 815 812 810 808 805 803 800 795 792 786 781 778 774
862 856 842 836 865 865 861 866 865 862 859 857 856 854 852 852 851 849 847 846 844 841 839 836 833 830 826 823 819 816 814 810 807 805 804 802 800 797 793 788 783 780 775 771